Regional Weather Roundup
Issued by NWS Charleston, SC

Current Version | Previous Version | Graphics & Text | Print | Product List | Glossary On
Versions: 1 2 3 4 5 6 7 8 9 10 11 12 13 14 15 16 17 18 19 20 21 22 23 24 25 26 27 28 29 30 31 32 33 34 35 36 37 38 39 40 41 42 43 44 45 46 47 48 49 50
000
ASUS42 KCHS 220510
RWRCHS
REGIONAL WEATHER ROUNDUP
NATIONAL WEATHER SERVICE CHARLESTON SC
100 AM EDT MON SEP 22 2014

NOTE: "FAIR" INDICATES FEW OR NO CLOUDS BELOW 12,000 FEET WITH NO
SIGNIFICANT WEATHER AND/OR OBSTRUCTIONS TO VISIBILITY.

NOT ALL STATIONS ARE QUALITY CONTROLLED BY THE NATIONAL
WEATHER SERVICE. USE DATA WITH CAUTION...ESPECIALLY
DEWPOINT OBSERVATIONS.

SCZ027-030-031-034>040-042>050-220600-
...SOUTH CAROLINA...

CITY           SKY/WX    TMP DP  RH WIND       PRES   REMARKS
N CHARLESTON   CLEAR     74  68  81 SW6       29.96S
WATERFRONT PRK NOT AVBL
FORT JOHNSON   NOT AVBL
MOUNT PLEASANT FAIR      77  72  83 SW6       29.96S
JOHNS ISLAND   CLEAR     77  75  94 CALM      29.96F
PINOPOLIS        N/A     77  64  65 SW6       29.87S
MONCKS CORNER    N/A     73  68  83 SW3       29.95S
SUMMERVILLE    FAIR      68  68 100 SW3       29.96
BEAUFORT MCAS  CLEAR     73  67  81 E7        29.97S
BEAUFORT ARPT  FAIR      73  68  83 SW5       29.97S
HILTON HEAD IS CLEAR     73  68  83 SW6       29.99S
GEORGETOWN     NOT AVBL
WALTERBORO     CLEAR     70  70 100 SW5       29.97S
ORANGEBURG     CLEAR     70  64  81 SW7       29.95S
BARNWELL       FAIR      72  64  78 SW6       29.96S
AIKEN          MOCLDY    73  64  73 S8        29.98S
MANNING        FAIR      75  68  78 SW7       29.94S
KINGSTREE      NOT AVBL
COLUMBIA       CLOUDY    77  62  59 SW9       29.92S
SUMTER         MOCLDY    74  65  74 SW12      29.91S
FLORENCE       MOCLDY    74  65  73 SW9       29.91F
MYRTLE BEACH   CLEAR     75  64  69 SW9       29.93S
N MYRTLE BEACH CLEAR     78  64  61 W10       29.92S

$$

GAZ063-065-086>088-099>101-113>116-118-119-134-136>141-150-220600-
...GEORGIA...

CITY           SKY/WX    TMP DP  RH WIND       PRES   REMARKS
SAVANNAH ARPT  CLEAR     73  63  70 SW7       29.98F
HUNTER AAF     CLEAR     72  66  81 SW6       29.97S
FORT STEWART   CLEAR     67  62  85 CALM      29.98S
STATESBORO     NOT AVBL
SYLVANIA       CLEAR     75  69  79 CALM      29.99S
CLAXTON        FAIR      66  66 100 CALM      29.99S
THOMSON        CLEAR     76  68  76 CALM      29.99S
AUGUSTA-BUSH   PTCLDY    73  62  68 SW8       29.94S
AUGUSTA-DANIEL MOCLDY    75  62  64 SW5       29.95F
SWAINSBORO     FAIR      73  64  73 SW3       29.99S
VIDALIA        CLEAR     70  63  78 SW3       30.00S
ALMA           CLEAR     64  61  90 CALM      30.00S
WAYCROSS       NOT AVBL
JESUP          FAIR      70  64  83 SW3       30.00S
BRUNSWICK      CLEAR     70  63  78 SW6       30.01S
SAINT SIMONS   CLEAR     74  64  71 SW9       30.00F

$$

SCZ027-028-034-036>038-045-046-048>050-GAZ119-141-220600-
...LAKE AND SUPPLEMENTAL COASTAL OBSERVATIONS...

STATION/POSITION TIME  TEMP    WIND        PRES    WAVE   SWELL
                       AIR SEA DIR/SP/G            HT/PER HT/PER/DIR
                 (UTC) (F)     (DEG/KT/KT) (MB)    (FT/S) (FT/S/D)
UPR LAKE MARION  NOT AVBL
WINYAH BAY       0400   76     230/  6     1014.0S
LAKE MURRAY      0400   79     230/  8/ 13 1012.9R
ACE BASIN NERRS  0400   74     270/  1     1015.0S
FORT PULASKI     0500   75     230/  6/  9 1015.4F
SAPELO ISLAND    0400   74     200/  7     1016.0S

$$

ANZ835-935-AMZ111-154-330-350-352-354-374-450-454-472-220600-
...C-MAN AND BUOY OBSERVATIONS...

STATION/POSITION TIME  TEMP    WIND        PRES    WAVE   SWELL
                       AIR SEA DIR/SP/G            HT/PER HT/PER/DIR
                 (UTC) (F)     (DEG/KT/KT) (MB)    (FT/S) (FT/S/D)
FOLLY BEACH CMAN 0400   79     230/ 10/ 13 1015.0F
BUOY 41004       0500   81 81  230/ 17/ 19 1014.0F   4/ 4   2/10
BUOY 41008       0500   82 83  220/ 16/ 17 1015.5S   3/ 4   2/100/ 9
5E ST. MARYS GA  0500      83                N/A     2/10
FRYING PAN BUOY  NOT AVBL
BUOY 41025       0500   81     240/ 23/ 27 1011.1R   7/ 5   3/130/ 9
CAPE LOOKOUT NC  0400   79     230/ 12/ 16 1012.0R
BUOY 41002       0429   80 81  250/ 14/ 16 1015.8S   7/ 8   5/310/ 8
BUOY 41010       0500   81 84  210/  8/ 12 1016.9F   5/10   5/ 30/10
BUOY 41012       NOT AVBL
ST AUGUSTINE FL  0500   74     220/  6/  6 1017.5F
CAPERS NEARSHORE 0400   80     240/ 16/ 17   N/A
FRIPP NEARSHORE  NOT AVBL


$$


USA.gov is the U.S. government's official web portal to all federal, state and local government web resources and services.